TimeCST,TemperatureF,Dew PointF,Humidity,Sea Level PressureIn,VisibilityMPH,Wind Direction,Wind SpeedMPH,Gust SpeedMPH,PrecipitationIn,Events,Conditions,WindDirDegrees,DateUTC
12:11 AM,42.8,41.0,93,30.24,3.0,Calm,Calm,-,N/A,,Scattered Clouds,0,2011-11-25 06:11:00
12:22 AM,44.6,42.8,93,30.23,3.0,South,3.5,-,N/A,,Mostly Cloudy,170,2011-11-25 06:22:00
12:48 AM,44.6,42.8,93,30.22,2.5,Calm,Calm,-,N/A,,Overcast,0,2011-11-25 06:48:00
12:53 AM,45.0,43.0,93,30.24,2.5,Calm,Calm,-,N/A,,Overcast,0,2011-11-25 06:53:00
1:02 AM,44.6,42.8,93,30.22,3.0,Calm,Calm,-,N/A,,Overcast,0,2011-11-25 07:02:00
2:14 AM,44.6,44.6,100,30.22,2.5,South,3.5,-,N/A,,Overcast,180,2011-11-25 08:14:00
2:49 AM,44.6,44.6,100,30.21,0.8,South,4.6,-,N/A,,Mist,190,2011-11-25 08:49:00
2:53 AM,45.0,44.1,97,30.22,0.8,South,4.6,-,N/A,,Mist,170,2011-11-25 08:53:00
3:01 AM,44.6,44.6,100,30.21,2.0,South,3.5,-,N/A,,Overcast,170,2011-11-25 09:01:00
3:13 AM,44.6,44.6,100,30.20,3.0,SSE,4.6,-,N/A,,Overcast,160,2011-11-25 09:13:00
4:13 AM,44.6,44.6,100,30.20,2.0,SSW,4.6,-,N/A,,Overcast,200,2011-11-25 10:13:00
4:20 AM,44.6,44.6,100,30.20,1.2,SSW,4.6,-,N/A,,Overcast,200,2011-11-25 10:20:00
4:30 AM,44.6,44.6,100,30.20,0.5,SSW,5.8,-,N/A,Fog,Fog,200,2011-11-25 10:30:00
4:49 AM,44.6,44.6,100,30.20,0.2,SSW,6.9,-,N/A,Fog,Fog,210,2011-11-25 10:49:00
4:53 AM,45.0,45.0,100,30.21,0.2,SW,5.8,-,N/A,Fog,Fog,220,2011-11-25 10:53:00
5:53 AM,46.0,45.0,96,30.22,0.5,SW,5.8,-,N/A,Fog,Fog,230,2011-11-25 11:53:00
6:11 AM,44.6,44.6,100,30.21,0.2,South,3.5,-,N/A,Fog,Fog,180,2011-11-25 12:11:00
6:53 AM,45.0,44.1,97,30.22,0.2,SSW,6.9,-,N/A,Fog,Fog,200,2011-11-25 12:53:00
7:53 AM,45.0,44.1,97,30.23,0.2,South,6.9,-,N/A,Fog,Fog,190,2011-11-25 13:53:00
8:49 AM,44.6,44.6,100,30.22,0.5,South,8.1,-,N/A,Fog,Fog,190,2011-11-25 14:49:00
8:53 AM,45.0,45.0,100,30.23,0.8,South,8.1,-,N/A,,Overcast,190,2011-11-25 14:53:00
9:34 AM,46.4,44.6,93,30.21,1.5,South,9.2,-,N/A,,Overcast,190,2011-11-25 15:34:00
9:41 AM,46.4,46.4,100,30.21,3.0,South,9.2,-,N/A,,Overcast,190,2011-11-25 15:41:00
9:53 AM,46.0,45.0,96,30.22,5.0,SSW,10.4,-,N/A,,Overcast,200,2011-11-25 15:53:00
10:05 AM,46.4,46.4,100,30.21,7.0,SSW,11.5,-,N/A,,Overcast,200,2011-11-25 16:05:00
10:34 AM,50.0,46.4,87,30.19,10.0,South,11.5,-,N/A,,Scattered Clouds,190,2011-11-25 16:34:00
10:53 AM,51.1,46.0,83,30.19,10.0,SSW,12.7,18.4,N/A,,Partly Cloudy,200,2011-11-25 16:53:00
11:53 AM,55.9,46.9,72,30.14,10.0,SSW,17.3,-,N/A,,Clear,210,2011-11-25 17:53:00
12:53 PM,60.1,48.0,64,30.11,10.0,SSW,16.1,-,N/A,,Clear,210,2011-11-25 18:53:00
1:53 PM,61.0,48.9,64,30.07,10.0,South,9.2,18.4,N/A,,Clear,190,2011-11-25 19:53:00
3:53 PM,62.1,48.0,60,30.05,10.0,South,13.8,-,N/A,,Clear,170,2011-11-25 21:53:00
4:53 PM,59.0,48.0,67,30.04,10.0,South,10.4,-,N/A,,Clear,170,2011-11-25 22:53:00
5:53 PM,57.0,46.9,69,30.03,10.0,South,9.2,-,N/A,,Clear,180,2011-11-25 23:53:00
6:53 PM,54.0,45.0,72,30.03,10.0,South,5.8,-,N/A,,Clear,190,2011-11-26 00:53:00
7:53 PM,55.0,44.1,67,30.04,10.0,South,8.1,-,N/A,,Clear,180,2011-11-26 01:53:00
8:53 PM,53.1,45.0,74,30.05,10.0,South,4.6,-,N/A,,Clear,170,2011-11-26 02:53:00
9:53 PM,55.0,46.9,74,30.04,10.0,South,8.1,-,N/A,,Clear,170,2011-11-26 03:53:00
10:53 PM,54.0,46.9,77,30.04,10.0,South,5.8,-,N/A,,Mostly Cloudy,170,2011-11-26 04:53:00